www.pogodaiklimat.ru
ПОГОДА в Юрьев-Польском

Архив погоды в Юрьев-Польском (Владимирская область, Россия)

Время
(UTC), дата
00 29.11
03 29.11
06 29.11
09 29.11
12 29.11
15 29.11
18 29.11
21 29.11
00 30.11
03 30.11
06 30.11
09 30.11
12 30.11
15 30.11
18 30.11
21 30.11
00 1.12
03 1.12
06 1.12
09 1.12
12 1.12
15 1.12
18 1.12
21 1.12
00 2.12
03 2.12
06 2.12
09 2.12
12 2.12
15 2.12
18 2.12
21 2.12
00 3.12
03 3.12
06 3.12
09 3.12
12 3.12
15 3.12
18 3.12
21 3.12
00 4.12
03 4.12
06 4.12
09 4.12
12 4.12
15 4.12
18 4.12
21 4.12
00 5.12
03 5.12
06 5.12
09 5.12
12 5.12
15 5.12
18 5.12
Ветер
(напр.,м/с)
Видим. Явления Облачность Т
(С)
Тd
(С)
f
(%)
Тe
(С)
Тes
(С)
Комфортность P
(гПа)
Po
(гПа)
Тmin
(С)
Tmax
(С)
R
(мм)
R24
(мм)
S
(см)
штиль 0 10 км 10/10 600 м
[Sc]
+0.8 -0.3 92 -0 -0 1009.8 990.7
ЮВ 2 10 км 10/10 600 м
[Sc]
+0.8 -0.4 92 -3 -3 1009.4 990.3 +0.6 <0.5
В 1 4000 м слаб. морось 10/10 300 м
[St]
+1.0 +0.2 94 -1 -1 1008.6 989.5
ЮВ 2 1000 м морось 10/10 300 м
[St]
+2.0 +1.6 97 -2 -2 1006.2 987.2
В 1 500 м слаб. морось {туман} туман 10/10 300 м
[St]
+2.5 +2.1 97 +1 +1 1003.4 984.5
В 2 10 км слаб. дождь {морось} 10/10 300 м
[Ns]
+2.2 +1.9 98 -1 -1 1000.1 981.3 +2.6 0.8
В 3 4000 м слаб. морось {дождь} 10/10 300 м
[St]
+2.1 +1.8 98 -2 -2 996.3 977.5
В 3 10 км слаб. дождь {морось} 10/10 300 м
[Ns]
+1.8 +1.6 99 -3 -3 990.6 972.1
В 4 10 км дождь {морось} 10/10 300 м
[Ns]
+2.2 +1.9 98 -3 -3 982.1 963.8
В 4-10
{12}
4000 м дождь 10/10 300 м
[Ns]
+3.9 +3.4 97 -1 -1 972.7 954.5 +1.8 8
Ю 7-13
{16}
10 км слаб. дождь 10/10 300 м
[Ns]
+6.4 +4.8 89 +1 +1 970.4 952.4
Ю 7-12
{17}
10 км слаб. ливневой дождь 10/10 300 м
[Cb cap]
+5.1 +2.3 82 -0 -0 972.4 954.3
Ю 5
{15}
20 км слаб. ливневой снег {дождь} 10/10 300 м
[Cb cap]
+1.7 -0.6 85 -4 -4 972.3 954.1
Ю 5-10
{13}
1000 м сильн. снег {ливн. снег} 10/10 300 м
[Ns]
-0.9 -1.4 96 -7 -7 971.8 953.5 +7.3 4
Ю 5-12
{15}
4000 м слаб. снег {ливн. снег} 10/10 300 м
[Ns]
-2.4 -3.5 92 -9 -9 973.7 955.1
ЮЗ 4-11
{13}
2000 м снег {метель} 10/10 300 м
[Ns]
-3.1 -4.2 92 -9 -9 977.4 958.9
ЮЗ 4
{11}
1000 м сильн. снег {метель} 10/10 300 м
[Ns]
-3.4 -4.8 90 -10 -10 981.6 962.8
ЮЗ 3 2000 м снег {метель} 10/10 300 м
[Frnb Ns]
-3.7 -4.8 92 -9 -9 983.5 964.6 -3.7 4 5
ЮЗ 2 4000 м слаб. снег {метель} 10/10 300 м
[Ns]
-4.1 -5.0 93 -8 -8 985.0 966.0 -4.1
ЮЗ 1 1000 м сильн. снег 10/10 300 м
[Ns]
-4.8 -5.6 94 -7 -7 986.6 967.7
ЮЗ 1 4000 м слаб. снег 10/10 300 м
[Ns]
-5.0 -6.2 91 -7 -7 987.7 968.8
З 2 2000 м снег 10/10 300 м
[Ns]
-5.2 -5.9 95 -10 -10 989.6 970.4 -3.7 5
ЮЗ 1 4000 м слаб. снег {метель} 10/10 300 м
[Ns]
-5.5 -6.8 91 -8 -8 990.7 971.7
ЮЗ 2 10 км слаб. снег {метель} 10/10 300 м
[Ns]
-6.4 -8.3 86 -11 -11 992.9 973.8
ЮЗ 2 10 км слаб. снег {метель} 10/10 300 м
[Ns]
-6.0 -8.0 86 -10 -10 994.5 975.4
ЮЗ 2 2000 м снег 10/10 300 м
[Ns]
-6.7 -8.4 88 -11 -11 996.9 977.5 -6.7 2 11
ЮЗ 2 4000 м слаб. снег {метель} 10/10 300 м
[Ns]
-6.2 -7.9 88 -11 -11 998.6 979.4 -7.1
ЮЗ 2 10 км слаб. снег 9/0
[As op]
-5.2 -7.8 82 -9 -9 1000.4 981.0
Ю 2 20 км {снег} 10/8 600 м
[Sc Ac As]
-5.5 -8.6 79 -10 -10 1000.5 981.1
Ю 1 4000 м слаб. снег 10/10 300 м
[Ns]
-5.7 -6.9 91 -8 -8 1000.0 980.8 -5.0 0.7
ЮВ 2 10 км слаб. снег 10/10 300 м
[Ns]
-5.0 -6.2 91 -9 -9 998.5 979.2
Ю 3 20 км слаб. снег 10/10 300 м
[Ns]
-3.5 -4.6 92 -9 -9 997.3 978.1
Ю 2 4000 м слаб. снег 10/10 300 м
[Ns]
-2.0 -2.6 96 -6 -6 996.4 977.3
Ю 3 4000 м дымка {снег} 10/10 600 м
[Sc]
-0.6 -1.3 95 -6 -6 997.0 978.0 -5.7 0.4 11
ЮЗ 3 20 км слаб. ливневой снег 10/10 300 м
[Cb cap]
+1.0 -0.6 89 -4 -4 998.1 979.3
ЮЗ 2 20 км в посл. час ливневой снег 9/9 300 м
[Cb cap]
+1.4 -0.8 85 -2 -2 1000.2 981.3
Ю 2 20 км {ливн. снег} 10/10 300 м
[Cb cap]
+1.1 -0.7 88 -2 -2 1001.1 982.2
ЮВ 1 20 км слаб. ливневой снег 10/10 300 м
[Cb cap]
+0.9 -0.7 89 -1 -1 1000.6 981.9 +1.6 0.0
штиль 0 500 м ливневой снег 10/10 300 м
[Cb cap]
-0.1 -0.5 97 -1 -1 998.9 979.9
штиль 0 2000 м снег {ливн. снег} 10/10 300 м
[Ns]
-0.2 -0.4 99 -2 -2 997.7 978.7
штиль 0 20 км в посл. час снег {ливн. снег} 9/9 600 м
[Sc]
-0.5 -1.1 96 -2 -2 997.7 978.7
штиль 0 20 км [диам. отлож. мокр. снега 19 мм] ясно -3.1 -4.3 91 -4 -4 998.6 979.4 -3.1 5 13
ЮЗ 2 20 км [диам. отлож. мокр. снега 19 мм] 10/0
[Ac As]
-2.7 -4.6 87 -7 -7 999.4 980.4 -3.6
ЮЗ 4-11
{11}
20 км позёмок {ливн. снег, метель} [диам. отлож. мокр. снега 19 мм] 9/8 300 м
[Cb cap Ac trans]
-2.6 -6.1 77 -8 -8 1001.2 982.0
ЮЗ 3
{11}
20 км слаб. ливневой снег {метель} [диам. отлож. мокр. снега 19 мм] 8/6 300 м
[Cb cap Ac trans]
-4.0 -6.9 80 -9 -9 1003.6 984.4
ЮЗ 3 20 км слаб. снег {ливн. снег} 10/10 300 м
[Ns]
-4.0 -6.3 84 -9 -9 1005.6 986.4 -2.5 0.2
ЮЗ 2 20 км слаб. снег {ливн. снег} 10/10 300 м
[Ns]
-4.4 -6.8 83 -9 -9 1007.8 988.6
ЮЗ 2 20 км слаб. снег 9/0 300 м
[As op]
-4.9 -7.2 84 -9 -9 1009.8 990.4
ЮЗ 1 20 км слаб. снег 9/0 300 м
[As op]
-6.2 -8.1 86 -9 -9 1011.8 992.2
З 1 20 км {снег} 3/3 300 м
[Sc]
-10.2 -11.2 92 -13 -13 1013.2 993.2 -10.2 0.0 12
штиль 0 20 км слаб. снег 10/0
[As op]
-10.2 -11.2 92 -11 -11 1014.4 994.4 -11.6
СВ 2 20 км слаб. снег 8/0
[As op]
-8.5 -9.9 90 -13 -13 1015.6 995.7
СВ 2 20 км слаб. снег 10/0
[As op]
-8.3 -9.8 89 -13 -13 1016.1 996.4
СВ 2 10 км слаб. снег 10/10 300 м
[Ns]
-9.3 -10.5 91 -14 -14 1017.5 997.7 -7.9 0.9
СВ 2 10 км слаб. снег 10/10 300 м
[Ns]
-11.7 -13.3 88 -16 -16 1019.0 998.9
Местоположение метеостанции Юрьев-Польский (Владимирская область, Россия): широта 56.48 долгота 39.68 высота над уровнем моря 154 м.
В архиве по умолчанию представлена погода в Юрьев-Польском за последнюю неделю. Архивные данные за месяц целиком и за предыдущие месяцы, начиная с января 2011 года, Вы можете получить, выбрав интересующий диапазон дат из раскрывающегося списка и нажав кнопку "Найти!".
*Определитесь, кто Вы:
Внимание! Время в таблицах - всемирное. Для получения местного времени необходимо прибавить поправку, которая равна 3 ч.
Смотрите также архив погоды в соседних городах и на ближайших метеорологических станциях:
Партнеры нашего сайта:      
Пояснения к столбцам:
  • Ветер - указаны скорость ветра в м/с - средняя за 10 мин, порывы в срок и между сроками (в фигурных скобках) и направление, откуда дует ветер: С - северный,
  • СВ - северо-восточный, В - восточный, ЮВ - юго-восточный, Ю - южный, ЮЗ - юго-западный, З - западный, СЗ - северо-западный.
  • Видимость - горизонтальная дальность видимости в метрах или километрах. При видимости от 1 до 10 км при отсутствии осадков обычно наблюдается дымка, при ухудшении видимости до 1 км и менее - туман. В сухую погоду видимость может ухудшаться дымом, пылью или мглою.
  • Явления - указаны атмосферные явления, наблюдавшиеся в срок или в последний час перед сроком; фигурными скобками обозначены явления, наблюдавшиеся между сроками (за 1-3 часа до срока); квадратными скобками обозначены град или гололедные отложения с указанием их диаметра в мм.
  • Облачность - указаны через наклонную черту общая и нижняя облачность в баллах и высота нижней границы облаков в метрах; квадратными скобками обозначены формы облаков: Ci - перистые, Cs - перисто-слоистые, Cc - перисто-кучевые, Ac - высококучевые, As - высокослоистые, Sc - слоисто-кучевые, Ns - слоисто-дождевые, Cu - кучевые, Cb - кучево-дождевые. Подробнее классификацию облаков см. в Атласе облаков (PDF).
  • T - Температура воздуха - температура, измеренная на высоте 2 м над землей.
  • Td - Температура точки росы - температура, при понижении до которой содержащийся в воздухе водяной пар достигнет насыщения.
  • f - Относительная влажность воздуха - влажноcть воздуха, измеренная на высоте 2 м над землей.
  • Te - Эффективная температура - температура, которую ощущает одетый по сезону человек в тени. Характеристика душности погоды. При расчете учитывается влияние влажности воздуха и скорости ветра на теплоощущения человека.
  • Tes - Эффективная температура на солнце - температура, которую ощущает человек, с поправкой на солнечный нагрев. Характеристика знойности погоды. Зависит от высоты солнца над горизонтом, облачности и скорости ветра. Ночью, в пасмурную погоду, а также при ветре 12 м/с и более поправка равна нулю.
  • P - Атмосферное давление - приведенное к уровню моря атмосферное давление.
  • Po - Атмосферное давление - измеренное на уровне метеостанции атмосферное давление.
  • Tmin - Минимальная температура - минимум температуры воздуха на высоте 2 м над землей.
  • Tmax - Максимальная температура - максимум температуры воздуха на высоте 2 м над землей.
  • R - Количество осадков - Количество выпавших осадков за период времени, мм. При наведении курсора мыши на число - период времени, за который выпало указанное количество осадков.
  • R24 - Количество осадков - Количество выпавших осадков за 24 часа, мм.
  • S - Снежный покров - Высота снежного покрова, см. При наведении курсора мыши на число - состояние снежного покрова и степень покрытия местности в баллах.